PIMOHWEATHER Station Historical Data
Daily Summary for August 17, 2020 Units:  Metric    English   Both
Daily Weekly Monthly Yearly
  High: Low: Average:
Temperature: 33.0 °C 25.0 °C 28.8 °C
Dew Point: 26.0 °C 23.0 °C 24.5 °C
Humidity: 92% 60% 79%
Wind Speed: 29km/h 0km/h 9.9km/h
Wind Gust: 36km/h - -
Wind- - South
Pressure: 1013.5 hPa 1009.0 hPa -
Precipitation: 7.49 mm    
 
 
Tabular Data for August 17, 2020
Time Temperature Dew Point Pressure Wind Wind Speed Wind Gust Humidity Rainfall Rate (Hourly) solar
00:04 27.0 °C 24.0 °C 1012.3 hPa East 4 km/h 8 km/h 85% 0.00 mm 0.00 W/m2
00:09 27.0 °C 24.0 °C 1012.3 hPa East 4 km/h 4 km/h 85% 0.00 mm 0.00 W/m2
00:14 27.0 °C 24.0 °C 1012.3 hPa East 5 km/h 8 km/h 85% 0.00 mm 0.00 W/m2
00:19 27.0 °C 24.0 °C 1012.2 hPa ESE 3 km/h 4 km/h 85% 0.00 mm 0.00 W/m2
00:24 27.0 °C 24.0 °C 1012.2 hPa East 4 km/h 8 km/h 85% 0.00 mm 0.00 W/m2
00:29 27.0 °C 24.0 °C 1012.1 hPa Calm   4 km/h 85% 0.00 mm 0.00 W/m2
00:34 27.0 °C 24.0 °C 1012.1 hPa East 4 km/h 4 km/h 85% 0.00 mm 0.00 W/m2
00:39 27.0 °C 24.0 °C 1012.0 hPa Calm   4 km/h 85% 0.00 mm 0.00 W/m2
00:44 27.0 °C 24.0 °C 1012.2 hPa ESE 4 km/h 8 km/h 86% 0.00 mm 0.00 W/m2
00:49 27.0 °C 24.0 °C 1012.2 hPa ESE 1 km/h 4 km/h 86% 0.00 mm 0.00 W/m2
00:54 27.0 °C 24.0 °C 1011.9 hPa East 3 km/h 4 km/h 86% 0.00 mm 0.00 W/m2
00:59 27.0 °C 24.0 °C 1011.9 hPa ESE 4 km/h 4 km/h 85% 0.00 mm 0.00 W/m2
01:04 27.0 °C 24.0 °C 1011.7 hPa ESE 3 km/h 4 km/h 86% 0.00 mm 0.00 W/m2
01:09 27.0 °C 24.0 °C 1011.8 hPa ESE 1 km/h 4 km/h 86% 0.00 mm 0.00 W/m2
01:14 27.0 °C 24.0 °C 1011.8 hPa ESE 3 km/h 4 km/h 85% 0.00 mm 0.00 W/m2
01:17 27.0 °C 24.0 °C 1011.6 hPa Calm   4 km/h 85% 0.00 mm 0.00 W/m2
01:29 27.0 °C 24.0 °C 1011.5 hPa ESE 3 km/h 4 km/h 86% 0.00 mm 0.00 W/m2
01:34 27.0 °C 24.0 °C 1011.5 hPa ESE 1 km/h 4 km/h 86% 0.00 mm 0.00 W/m2
01:39 27.0 °C 24.0 °C 1011.4 hPa ESE 1 km/h 4 km/h 85% 0.00 mm 0.00 W/m2
01:44 27.0 °C 24.0 °C 1011.5 hPa ESE 3 km/h 4 km/h 86% 0.00 mm 0.00 W/m2
01:49 27.0 °C 24.0 °C 1011.4 hPa ESE 3 km/h 4 km/h 86% 0.00 mm 0.00 W/m2
01:54 27.0 °C 24.0 °C 1011.2 hPa ESE 1 km/h 4 km/h 86% 0.00 mm 0.00 W/m2
01:59 27.0 °C 24.0 °C 1011.3 hPa ESE 1 km/h 4 km/h 86% 0.00 mm 0.00 W/m2
02:04 27.0 °C 24.0 °C 1011.2 hPa ESE 2 km/h 4 km/h 86% 0.00 mm 0.00 W/m2
02:09 27.0 °C 24.0 °C 1011.2 hPa Calm   4 km/h 86% 0.00 mm 0.00 W/m2
02:14 27.0 °C 24.0 °C 1011.2 hPa ENE 4 km/h 8 km/h 86% 0.00 mm 0.00 W/m2
02:19 26.0 °C 24.0 °C 1011.2 hPa ENE 4 km/h 8 km/h 86% 0.00 mm 0.00 W/m2
02:24 26.0 °C 24.0 °C 1011.1 hPa NE 5 km/h 8 km/h 86% 0.00 mm 0.00 W/m2
02:29 26.0 °C 24.0 °C 1011.0 hPa NE 10 km/h 12 km/h 86% 0.00 mm 0.00 W/m2
02:34 26.0 °C 24.0 °C 1011.0 hPa NE 5 km/h 8 km/h 86% 0.00 mm 0.00 W/m2
02:39 26.0 °C 24.0 °C 1011.0 hPa NE 5 km/h 8 km/h 86% 0.00 mm 0.00 W/m2
02:44 26.0 °C 24.0 °C 1011.0 hPa NE 4 km/h 4 km/h 85% 0.00 mm 0.00 W/m2
02:49 26.0 °C 24.0 °C 1011.1 hPa NE 3 km/h 8 km/h 85% 0.00 mm 0.00 W/m2
02:54 26.0 °C 23.0 °C 1011.2 hPa NE 8 km/h 8 km/h 85% 0.00 mm 0.00 W/m2
02:59 26.0 °C 24.0 °C 1011.1 hPa NNE 5 km/h 8 km/h 86% 0.00 mm 0.00 W/m2
03:01 26.0 °C 24.0 °C 1011.1 hPa NNE 8 km/h 8 km/h 87% 0.00 mm 0.00 W/m2
03:14 26.0 °C 23.0 °C 1011.0 hPa NNE 4 km/h 4 km/h 87% 0.00 mm 0.00 W/m2
03:19 26.0 °C 23.0 °C 1011.0 hPa Calm     86% 0.00 mm 0.00 W/m2
03:24 26.0 °C 24.0 °C 1011.1 hPa NE 1 km/h 4 km/h 86% 0.00 mm 0.00 W/m2
03:29 26.0 °C 24.0 °C 1011.1 hPa Calm   4 km/h 86% 0.00 mm 0.00 W/m2
03:34 26.0 °C 24.0 °C 1011.0 hPa ENE 2 km/h 4 km/h 86% 0.00 mm 0.00 W/m2
03:39 26.0 °C 23.0 °C 1011.4 hPa NE 6 km/h 8 km/h 86% 0.00 mm 0.00 W/m2
03:44 26.0 °C 23.0 °C 1011.4 hPa NE 6 km/h 8 km/h 86% 0.00 mm 0.00 W/m2
03:49 26.0 °C 23.0 °C 1011.4 hPa NNE 5 km/h 8 km/h 85% 0.00 mm 0.00 W/m2
03:54 26.0 °C 23.0 °C 1011.6 hPa NNE 10 km/h 12 km/h 86% 0.00 mm 0.00 W/m2
03:59 26.0 °C 24.0 °C 1011.6 hPa NNE 13 km/h 16 km/h 87% 0.00 mm 0.00 W/m2
04:04 26.0 °C 23.0 °C 1011.4 hPa NNE 9 km/h 12 km/h 87% 0.00 mm 0.00 W/m2
04:09 26.0 °C 23.0 °C 1011.4 hPa NNE 9 km/h 12 km/h 87% 0.00 mm 0.00 W/m2
04:14 26.0 °C 23.0 °C 1011.4 hPa NNE 4 km/h 4 km/h 86% 0.00 mm 0.00 W/m2
04:19 26.0 °C 23.0 °C 1011.5 hPa NNE 4 km/h 4 km/h 86% 0.00 mm 0.00 W/m2
04:24 26.0 °C 23.0 °C 1011.7 hPa NNE 5 km/h 8 km/h 85% 0.00 mm 0.00 W/m2
04:29 26.0 °C 23.0 °C 1011.7 hPa NNE 6 km/h 8 km/h 85% 0.00 mm 0.00 W/m2
04:34 26.0 °C 23.0 °C 1011.7 hPa NE 10 km/h 12 km/h 85% 0.00 mm 0.00 W/m2
04:39 26.0 °C 23.0 °C 1011.8 hPa NE 4 km/h 4 km/h 85% 0.00 mm 0.00 W/m2
04:44 26.0 °C 23.0 °C 1011.7 hPa NE 3 km/h 4 km/h 85% 0.00 mm 0.00 W/m2
04:45 26.0 °C 23.0 °C 1011.6 hPa Calm     85% 0.00 mm 0.00 W/m2
04:59 26.0 °C 23.0 °C 1011.8 hPa ENE 3 km/h 4 km/h 85% 0.00 mm 0.00 W/m2
05:04 26.0 °C 23.0 °C 1011.8 hPa ENE 6 km/h 8 km/h 86% 0.00 mm 0.00 W/m2
05:09 26.0 °C 23.0 °C 1011.7 hPa Calm     86% 0.00 mm 0.00 W/m2
05:14 26.0 °C 23.0 °C 1011.8 hPa Calm     86% 0.00 mm 0.00 W/m2
05:19 26.0 °C 23.0 °C 1011.9 hPa ENE 4 km/h 4 km/h 86% 0.00 mm 0.00 W/m2
05:24 26.0 °C 23.0 °C 1011.9 hPa ENE 5 km/h 8 km/h 86% 0.00 mm 0.00 W/m2
05:29 26.0 °C 24.0 °C 1012.0 hPa ENE 2 km/h 4 km/h 87% 0.00 mm 0.00 W/m2
05:34 26.0 °C 24.0 °C 1012.1 hPa ENE 1 km/h 4 km/h 88% 0.00 mm 0.00 W/m2
05:39 26.0 °C 24.0 °C 1012.0 hPa Calm     88% 1.80 mm 0.00 W/m2
05:44 26.0 °C 24.0 °C 1012.0 hPa ENE 3 km/h 4 km/h 89% 3.61 mm 2.94 W/m2
05:49 26.0 °C 24.0 °C 1012.2 hPa ENE 4 km/h 4 km/h 89% 3.61 mm 5.63 W/m2
05:54 26.0 °C 24.0 °C 1012.2 hPa ENE 4 km/h 4 km/h 89% 3.61 mm 9.05 W/m2
05:59 25.0 °C 24.0 °C 1012.2 hPa ENE 4 km/h 4 km/h 90% 1.80 mm 16.88 W/m2
06:04 25.0 °C 24.0 °C 1012.4 hPa ENE 3 km/h 4 km/h 90% 1.80 mm 20.80 W/m2
06:09 25.0 °C 24.0 °C 1012.3 hPa ENE 4 km/h 4 km/h 90% 0.00 mm 23.85 W/m2
06:14 25.0 °C 24.0 °C 1012.3 hPa Calm     90% 1.80 mm 24.71 W/m2
06:19 26.0 °C 24.0 °C 1012.4 hPa ENE 3 km/h 4 km/h 90% 3.61 mm 27.28 W/m2
06:24 26.0 °C 24.0 °C 1012.4 hPa ENE 1 km/h 4 km/h 90% 5.41 mm 24.71 W/m2
06:29 26.0 °C 24.0 °C 1012.6 hPa Calm     90% 7.19 mm 22.51 W/m2
06:34 26.0 °C 24.0 °C 1012.6 hPa Calm     91% 8.99 mm 21.16 W/m2
06:39 25.0 °C 24.0 °C 1012.6 hPa ENE 4 km/h 4 km/h 91% 8.99 mm 22.87 W/m2
06:44 25.0 °C 24.0 °C 1012.5 hPa Calm     92% 8.99 mm 24.22 W/m2
06:49 25.0 °C 24.0 °C 1012.5 hPa Calm     92% 10.80 mm 28.14 W/m2
06:54 26.0 °C 24.0 °C 1012.6 hPa Calm     92% 10.80 mm 28.99 W/m2
06:59 26.0 °C 24.0 °C 1012.6 hPa Calm     92% 8.99 mm 32.90 W/m2
07:04 26.0 °C 24.0 °C 1012.6 hPa Calm     92% 7.19 mm 39.02 W/m2
07:09 26.0 °C 24.0 °C 1012.6 hPa ENE 2 km/h 4 km/h 92% 3.61 mm 45.02 W/m2
07:14 26.0 °C 24.0 °C 1012.6 hPa Calm     92% 3.61 mm 54.19 W/m2
07:19 26.0 °C 24.0 °C 1012.6 hPa ENE 1 km/h 4 km/h 92% 1.80 mm 68.51 W/m2
07:24 26.0 °C 24.0 °C 1012.5 hPa ENE 2 km/h 4 km/h 92% 0.00 mm 77.56 W/m2
07:29 26.0 °C 25.0 °C 1012.6 hPa Calm     92% 0.00 mm 86.24 W/m2
07:34 26.0 °C 25.0 °C 1012.6 hPa Calm     92% 0.00 mm 89.31 W/m2
07:39 26.0 °C 25.0 °C 1012.6 hPa Calm   4 km/h 92% 0.00 mm 93.58 W/m2
07:44 26.0 °C 25.0 °C 1012.7 hPa ENE 1 km/h 4 km/h 91% 0.00 mm 89.79 W/m2
07:49 26.0 °C 25.0 °C 1012.7 hPa ENE 3 km/h 4 km/h 91% 0.00 mm 49.79 W/m2
07:54 26.0 °C 25.0 °C 1012.7 hPa ENE 4 km/h 4 km/h 91% 0.00 mm 55.41 W/m2
07:59 26.0 °C 25.0 °C 1012.9 hPa ENE 1 km/h 4 km/h 91% 0.00 mm 68.87 W/m2
08:04 26.0 °C 25.0 °C 1013.0 hPa ENE 5 km/h 8 km/h 91% 0.00 mm 90.16 W/m2
08:09 26.0 °C 25.0 °C 1013.0 hPa East 4 km/h 4 km/h 91% 0.00 mm 151.33 W/m2
08:14 26.0 °C 25.0 °C 1013.0 hPa East 4 km/h 4 km/h 91% 0.00 mm 209.44 W/m2
08:19 27.0 °C 25.0 °C 1013.1 hPa East 2 km/h 4 km/h 89% 0.00 mm 239.78 W/m2
08:24 27.0 °C 25.0 °C 1013.1 hPa East 2 km/h 4 km/h 88% 0.00 mm 245.04 W/m2
08:29 27.0 °C 25.0 °C 1013.3 hPa East 6 km/h 8 km/h 87% 0.00 mm 239.78 W/m2
08:34 27.0 °C 25.0 °C 1013.3 hPa East 4 km/h 4 km/h 87% 0.00 mm 163.44 W/m2
08:39 27.0 °C 25.0 °C 1013.2 hPa SE 12 km/h 12 km/h 87% 0.00 mm 200.75 W/m2
08:44 28.0 °C 25.0 °C 1013.1 hPa SSE 5 km/h 8 km/h 87% 0.00 mm 243.69 W/m2
08:49 28.0 °C 25.0 °C 1013.2 hPa SSE 8 km/h 8 km/h 86% 0.00 mm 189.98 W/m2
08:54 28.0 °C 25.0 °C 1013.2 hPa South 10 km/h 12 km/h 86% 0.00 mm 241.98 W/m2
08:59 28.0 °C 25.0 °C 1013.3 hPa South 8 km/h 8 km/h 85% 0.00 mm 261.07 W/m2
09:04 28.0 °C 25.0 °C 1013.2 hPa South 12 km/h 12 km/h 85% 0.00 mm 266.69 W/m2
09:09 28.0 °C 25.0 °C 1013.4 hPa South 10 km/h 12 km/h 85% 0.00 mm 291.03 W/m2
09:14 28.0 °C 25.0 °C 1013.3 hPa South 11 km/h 16 km/h 84% 0.00 mm 260.21 W/m2
09:19 28.0 °C 25.0 °C 1013.5 hPa SW 11 km/h 12 km/h 84% 0.00 mm 269.38 W/m2
09:24 28.0 °C 25.0 °C 1013.4 hPa WSW 5 km/h 8 km/h 84% 0.00 mm 283.20 W/m2
09:29 28.0 °C 25.0 °C 1013.4 hPa South 12 km/h 12 km/h 83% 0.00 mm 300.95 W/m2
09:34 28.0 °C 25.0 °C 1013.3 hPa South 15 km/h 16 km/h 83% 0.00 mm 311.47 W/m2
09:39 29.0 °C 25.0 °C 1013.4 hPa South 9 km/h 12 km/h 83% 0.00 mm 483.23 W/m2
09:44 29.0 °C 25.0 °C 1013.3 hPa SE 14 km/h 16 km/h 80% 0.00 mm 523.96 W/m2
09:49 29.0 °C 25.0 °C 1013.1 hPa South 13 km/h 16 km/h 80% 0.00 mm 527.02 W/m2
09:54 29.0 °C 25.0 °C 1013.1 hPa South 17 km/h 20 km/h 80% 0.00 mm 520.91 W/m2
09:59 29.0 °C 25.0 °C 1013.1 hPa SE 9 km/h 12 km/h 80% 0.00 mm 536.57 W/m2
10:04 30.0 °C 25.0 °C 1013.1 hPa SSE 8 km/h 12 km/h 77% 0.00 mm 632.48 W/m2
10:09 30.0 °C 25.0 °C 1013.0 hPa West 14 km/h 16 km/h 77% 0.00 mm 500.60 W/m2
10:14 30.0 °C 25.0 °C 1013.0 hPa South 16 km/h 20 km/h 77% 0.00 mm 342.66 W/m2
10:19 29.0 °C 25.0 °C 1012.9 hPa SSW 10 km/h 12 km/h 77% 0.00 mm 322.72 W/m2
10:24 30.0 °C 25.0 °C 1012.9 hPa SW 8 km/h 12 km/h 75% 0.00 mm 361.74 W/m2
10:29 30.0 °C 25.0 °C 1013.2 hPa SSW 12 km/h 16 km/h 76% 0.00 mm 399.91 W/m2
10:34 30.0 °C 25.0 °C 1013.1 hPa SSW 5 km/h 8 km/h 75% 0.00 mm 406.03 W/m2
10:39 30.0 °C 25.0 °C 1013.2 hPa WSW 13 km/h 20 km/h 74% 0.00 mm 400.77 W/m2
10:44 30.0 °C 25.0 °C 1013.2 hPa West 12 km/h 16 km/h 75% 0.00 mm 358.69 W/m2
10:49 30.0 °C 25.0 °C 1012.9 hPa SW 12 km/h 12 km/h 75% 0.00 mm 406.03 W/m2
10:54 30.0 °C 25.0 °C 1012.9 hPa SSW 15 km/h 20 km/h 75% 0.00 mm 387.32 W/m2
10:59 30.0 °C 25.0 °C 1012.9 hPa SW 13 km/h 16 km/h 76% 0.00 mm 517.48 W/m2
11:04 30.0 °C 25.0 °C 1012.9 hPa SW 18 km/h 24 km/h 76% 0.00 mm 698.41 W/m2
11:09 30.0 °C 25.0 °C 1012.9 hPa West 8 km/h 12 km/h 75% 0.00 mm 504.51 W/m2
11:14 30.0 °C 25.0 °C 1012.7 hPa WNW 13 km/h 20 km/h 73% 0.00 mm 484.08 W/m2
11:19 30.0 °C 25.0 °C 1012.7 hPa SW 14 km/h 20 km/h 73% 0.00 mm 481.03 W/m2
11:24 30.0 °C 25.0 °C 1012.5 hPa SW 11 km/h 16 km/h 73% 0.00 mm 543.54 W/m2
11:29 31.0 °C 25.0 °C 1012.5 hPa WSW 10 km/h 12 km/h 71% 0.00 mm 522.25 W/m2
11:34 31.0 °C 25.0 °C 1012.3 hPa SW 14 km/h 20 km/h 71% 0.00 mm 522.74 W/m2
11:39 31.0 °C 25.0 °C 1012.2 hPa SW 18 km/h 24 km/h 71% 0.00 mm 589.53 W/m2
11:44 31.0 °C 25.0 °C 1012.2 hPa SW 15 km/h 20 km/h 71% 0.00 mm 689.24 W/m2
11:49 31.0 °C 25.0 °C 1012.1 hPa SSW 15 km/h 20 km/h 71% 0.00 mm 728.26 W/m2
11:54 31.0 °C 25.0 °C 1012.1 hPa SSW 19 km/h 24 km/h 71% 0.00 mm 916.54 W/m2
11:59 31.0 °C 24.0 °C 1012.0 hPa WSW 15 km/h 20 km/h 70% 0.00 mm 614.62 W/m2
12:04 31.0 °C 25.0 °C 1011.9 hPa WSW 17 km/h 20 km/h 69% 0.00 mm 580.85 W/m2
12:09 31.0 °C 25.0 °C 1011.9 hPa West 14 km/h 16 km/h 69% 0.00 mm 492.28 W/m2
12:14 31.0 °C 25.0 °C 1011.9 hPa West 10 km/h 16 km/h 69% 0.00 mm 478.45 W/m2
12:19 31.0 °C 24.0 °C 1012.0 hPa SW 21 km/h 24 km/h 69% 0.00 mm 555.65 W/m2
12:24 31.0 °C 25.0 °C 1011.8 hPa WSW 15 km/h 20 km/h 69% 0.00 mm 554.30 W/m2
12:29 31.0 °C 24.0 °C 1011.7 hPa West 15 km/h 20 km/h 70% 0.00 mm 519.68 W/m2
12:34 31.0 °C 24.0 °C 1011.6 hPa SW 18 km/h 28 km/h 69% 0.00 mm 828.09 W/m2
12:39 31.0 °C 24.0 °C 1011.5 hPa WSW 17 km/h 20 km/h 69% 0.00 mm 830.66 W/m2
12:44 32.0 °C 25.0 °C 1011.4 hPa SW 12 km/h 16 km/h 69% 0.00 mm 869.32 W/m2
12:49 32.0 °C 25.0 °C 1011.1 hPa WSW 15 km/h 20 km/h 67% 0.00 mm 955.20 W/m2
12:54 32.0 °C 24.0 °C 1011.2 hPa SW 23 km/h 28 km/h 65% 0.00 mm 1218.47 W/m2
12:59 32.0 °C 24.0 °C 1011.2 hPa SW 23 km/h 28 km/h 65% 0.00 mm 1170.76 W/m2
13:04 32.0 °C 24.0 °C 1011.0 hPa SW 12 km/h 16 km/h 64% 0.00 mm 804.24 W/m2
13:09 32.0 °C 24.0 °C 1010.9 hPa West 15 km/h 20 km/h 65% 0.00 mm 731.33 W/m2
13:14 32.0 °C 24.0 °C 1010.7 hPa SSW 16 km/h 20 km/h 65% 0.00 mm 850.24 W/m2
13:19 32.0 °C 24.0 °C 1010.7 hPa SW 14 km/h 20 km/h 64% 0.00 mm 675.41 W/m2
13:24 32.0 °C 24.0 °C 1010.8 hPa NW 15 km/h 20 km/h 63% 0.00 mm 876.66 W/m2
13:29 32.0 °C 24.0 °C 1010.6 hPa SSW 14 km/h 20 km/h 63% 0.00 mm 566.91 W/m2
13:34 32.0 °C 24.0 °C 1010.6 hPa SW 20 km/h 28 km/h 64% 0.00 mm 652.79 W/m2
13:39 32.0 °C 24.0 °C 1010.7 hPa SW 19 km/h 24 km/h 63% 0.00 mm 704.90 W/m2
13:44 32.0 °C 24.0 °C 1010.7 hPa WSW 14 km/h 20 km/h 64% 0.00 mm 597.73 W/m2
13:49 33.0 °C 24.0 °C 1010.5 hPa SSW 17 km/h 24 km/h 62% 0.00 mm 820.26 W/m2
13:54 33.0 °C 24.0 °C 1010.4 hPa SW 14 km/h 16 km/h 61% 0.00 mm 946.51 W/m2
13:59 33.0 °C 24.0 °C 1010.2 hPa SW 18 km/h 20 km/h 63% 0.00 mm 965.60 W/m2
14:04 32.0 °C 24.0 °C 1010.1 hPa SSW 19 km/h 24 km/h 63% 0.00 mm 899.29 W/m2
14:09 33.0 °C 24.0 °C 1010.2 hPa WSW 19 km/h 24 km/h 61% 0.00 mm 902.23 W/m2
14:14 33.0 °C 24.0 °C 1010.1 hPa SW 15 km/h 20 km/h 60% 0.00 mm 910.54 W/m2
14:19 33.0 °C 24.0 °C 1010.0 hPa SW 17 km/h 24 km/h 61% 0.00 mm 857.21 W/m2
14:24 33.0 °C 24.0 °C 1010.0 hPa WSW 22 km/h 28 km/h 61% 0.00 mm 844.12 W/m2
14:29 32.0 °C 24.0 °C 1010.0 hPa SW 20 km/h 24 km/h 63% 0.00 mm 751.26 W/m2
14:34 32.0 °C 24.0 °C 1010.1 hPa WSW 29 km/h 36 km/h 65% 0.00 mm 798.12 W/m2
14:39 32.0 °C 24.0 °C 1010.1 hPa SW 17 km/h 24 km/h 61% 0.00 mm 683.61 W/m2
14:44 32.0 °C 25.0 °C 1009.9 hPa SW 22 km/h 28 km/h 64% 0.00 mm 598.59 W/m2
14:49 32.0 °C 24.0 °C 1010.0 hPa SW 21 km/h 24 km/h 65% 0.00 mm 673.21 W/m2
14:54 32.0 °C 24.0 °C 1009.7 hPa SW 20 km/h 24 km/h 64% 0.00 mm 655.48 W/m2
14:59 32.0 °C 25.0 °C 1009.9 hPa SW 18 km/h 24 km/h 65% 0.00 mm 638.11 W/m2
15:04 33.0 °C 25.0 °C 1009.8 hPa SW 18 km/h 20 km/h 64% 0.00 mm 492.28 W/m2
15:09 32.0 °C 25.0 °C 1009.7 hPa SSW 22 km/h 32 km/h 66% 0.00 mm 488.00 W/m2
15:14 31.0 °C 25.0 °C 1009.7 hPa SW 26 km/h 32 km/h 67% 0.00 mm 498.89 W/m2
15:19 31.0 °C 24.0 °C 1009.7 hPa SW 21 km/h 28 km/h 67% 0.00 mm 511.37 W/m2
15:24 32.0 °C 25.0 °C 1009.6 hPa WSW 22 km/h 28 km/h 67% 0.00 mm 502.68 W/m2
15:29 32.0 °C 25.0 °C 1009.6 hPa SW 24 km/h 28 km/h 67% 0.00 mm 409.46 W/m2
15:34 31.0 °C 24.0 °C 1009.6 hPa SW 18 km/h 24 km/h 66% 0.00 mm 356.12 W/m2
15:39 31.0 °C 25.0 °C 1009.5 hPa SW 17 km/h 28 km/h 68% 0.00 mm 265.47 W/m2
15:44 31.0 °C 25.0 °C 1009.3 hPa SW 20 km/h 24 km/h 69% 0.00 mm 292.38 W/m2
15:49 31.0 °C 25.0 °C 1009.1 hPa West 17 km/h 20 km/h 69% 0.00 mm 287.12 W/m2
15:54 32.0 °C 25.0 °C 1009.1 hPa WSW 15 km/h 20 km/h 68% 0.00 mm 288.47 W/m2
15:59 31.0 °C 25.0 °C 1009.1 hPa SW 15 km/h 20 km/h 69% 0.00 mm 371.78 W/m2
16:04 32.0 °C 25.0 °C 1009.2 hPa West 12 km/h 20 km/h 67% 0.00 mm 397.71 W/m2
16:09 32.0 °C 25.0 °C 1009.1 hPa WNW 14 km/h 20 km/h 66% 0.00 mm 359.54 W/m2
16:14 32.0 °C 25.0 °C 1009.0 hPa West 11 km/h 20 km/h 66% 0.00 mm 391.23 W/m2
16:19 32.0 °C 25.0 °C 1009.1 hPa WSW 12 km/h 16 km/h 65% 0.00 mm 342.66 W/m2
16:24 32.0 °C 25.0 °C 1009.2 hPa WSW 12 km/h 16 km/h 68% 0.00 mm 238.92 W/m2
16:29 31.0 °C 25.0 °C 1009.3 hPa West 18 km/h 20 km/h 69% 0.00 mm 273.66 W/m2
16:34 31.0 °C 25.0 °C 1009.2 hPa WSW 15 km/h 20 km/h 68% 0.00 mm 237.21 W/m2
16:39 32.0 °C 24.0 °C 1009.4 hPa West 10 km/h 16 km/h 65% 0.00 mm 262.41 W/m2
16:44 32.0 °C 24.0 °C 1009.4 hPa SW 17 km/h 20 km/h 65% 0.00 mm 252.01 W/m2
16:49 32.0 °C 25.0 °C 1009.5 hPa SW 18 km/h 20 km/h 67% 0.00 mm 242.83 W/m2
16:54 32.0 °C 25.0 °C 1009.6 hPa SW 12 km/h 16 km/h 68% 0.00 mm 214.70 W/m2
16:59 31.0 °C 25.0 °C 1009.8 hPa SSW 21 km/h 24 km/h 70% 0.00 mm 148.27 W/m2
17:04 31.0 °C 25.0 °C 1009.8 hPa SSW 18 km/h 28 km/h 71% 0.00 mm 124.90 W/m2
17:09 31.0 °C 25.0 °C 1009.8 hPa SW 15 km/h 20 km/h 71% 0.00 mm 142.64 W/m2
17:14 31.0 °C 25.0 °C 1009.9 hPa SW 17 km/h 24 km/h 72% 0.00 mm 141.78 W/m2
17:19 31.0 °C 25.0 °C 1009.6 hPa WSW 13 km/h 20 km/h 71% 0.00 mm 105.33 W/m2
17:24 31.0 °C 25.0 °C 1009.8 hPa SW 17 km/h 20 km/h 71% 0.00 mm 64.59 W/m2
17:29 30.0 °C 25.0 °C 1009.9 hPa SW 21 km/h 24 km/h 73% 0.00 mm 58.11 W/m2
17:34 30.0 °C 25.0 °C 1009.8 hPa SW 19 km/h 24 km/h 75% 0.00 mm 52.48 W/m2
17:39 30.0 °C 25.0 °C 1010.1 hPa SW 21 km/h 32 km/h 75% 0.00 mm 44.65 W/m2
17:44 30.0 °C 25.0 °C 1010.3 hPa SW 23 km/h 28 km/h 74% 0.00 mm 37.19 W/m2
17:49 30.0 °C 25.0 °C 1010.3 hPa SW 18 km/h 24 km/h 75% 0.00 mm 29.85 W/m2
17:54 30.0 °C 25.0 °C 1010.2 hPa SW 18 km/h 24 km/h 75% 0.00 mm 22.51 W/m2
17:59 30.0 °C 25.0 °C 1010.4 hPa SW 19 km/h 24 km/h 75% 0.00 mm 16.39 W/m2
18:04 30.0 °C 25.0 °C 1010.4 hPa SW 18 km/h 24 km/h 76% 0.00 mm 10.77 W/m2
18:09 30.0 °C 25.0 °C 1010.3 hPa SW 15 km/h 20 km/h 76% 0.00 mm 6.85 W/m2
18:14 30.0 °C 25.0 °C 1010.3 hPa SW 13 km/h 16 km/h 77% 0.00 mm 3.79 W/m2
18:19 30.0 °C 25.0 °C 1010.2 hPa SW 13 km/h 16 km/h 77% 0.00 mm 1.22 W/m2
18:24 30.0 °C 25.0 °C 1010.3 hPa SW 10 km/h 12 km/h 76% 0.00 mm 0.00 W/m2
18:29 30.0 °C 25.0 °C 1010.4 hPa SW 14 km/h 20 km/h 77% 0.00 mm 0.00 W/m2
18:34 30.0 °C 25.0 °C 1010.6 hPa SW 12 km/h 16 km/h 77% 0.00 mm 0.00 W/m2
18:39 30.0 °C 25.0 °C 1010.7 hPa SW 9 km/h 12 km/h 77% 0.00 mm 0.00 W/m2
18:44 30.0 °C 25.0 °C 1010.7 hPa SW 15 km/h 20 km/h 77% 0.00 mm 0.00 W/m2
18:49 30.0 °C 25.0 °C 1010.7 hPa SW 15 km/h 20 km/h 79% 0.00 mm 0.00 W/m2
18:54 29.0 °C 25.0 °C 1010.9 hPa SW 14 km/h 16 km/h 79% 0.00 mm 0.00 W/m2
18:59 29.0 °C 25.0 °C 1011.2 hPa SW 13 km/h 16 km/h 79% 0.00 mm 0.00 W/m2
19:04 29.0 °C 25.0 °C 1011.0 hPa SW 12 km/h 16 km/h 79% 0.00 mm 0.00 W/m2
19:09 29.0 °C 25.0 °C 1010.9 hPa SW 14 km/h 20 km/h 79% 0.00 mm 0.00 W/m2
19:14 29.0 °C 25.0 °C 1011.2 hPa WSW 10 km/h 12 km/h 79% 0.00 mm 0.00 W/m2
19:19 29.0 °C 25.0 °C 1011.0 hPa SW 15 km/h 20 km/h 79% 0.00 mm 0.00 W/m2
19:24 29.0 °C 25.0 °C 1011.4 hPa SW 17 km/h 20 km/h 79% 0.00 mm 0.00 W/m2
19:29 29.0 °C 25.0 °C 1011.4 hPa SSW 14 km/h 20 km/h 79% 0.00 mm 0.00 W/m2
19:34 29.0 °C 25.0 °C 1011.3 hPa SW 8 km/h 12 km/h 79% 0.00 mm 0.00 W/m2
19:39 29.0 °C 25.0 °C 1011.2 hPa SW 10 km/h 16 km/h 79% 0.00 mm 0.00 W/m2
19:44 30.0 °C 25.0 °C 1011.2 hPa SW 10 km/h 16 km/h 79% 0.00 mm 0.00 W/m2
19:49 29.0 °C 25.0 °C 1011.3 hPa SW 13 km/h 16 km/h 78% 0.00 mm 0.00 W/m2
19:54 29.0 °C 25.0 °C 1011.7 hPa SSW 13 km/h 16 km/h 78% 0.00 mm 0.00 W/m2
19:59 29.0 °C 25.0 °C 1011.6 hPa SSW 12 km/h 16 km/h 78% 0.00 mm 0.00 W/m2
20:04 30.0 °C 25.0 °C 1011.7 hPa SW 9 km/h 12 km/h 78% 0.00 mm 0.00 W/m2
20:09 30.0 °C 25.0 °C 1011.8 hPa SSW 12 km/h 16 km/h 77% 0.00 mm 0.00 W/m2
20:14 30.0 °C 25.0 °C 1012.0 hPa SW 10 km/h 12 km/h 77% 0.00 mm 0.00 W/m2
20:19 30.0 °C 25.0 °C 1012.1 hPa SW 9 km/h 12 km/h 77% 0.00 mm 0.00 W/m2
20:24 30.0 °C 25.0 °C 1012.2 hPa SW 13 km/h 20 km/h 77% 0.00 mm 0.00 W/m2
20:29 29.0 °C 25.0 °C 1012.0 hPa SW 12 km/h 16 km/h 77% 0.00 mm 0.00 W/m2
20:34 29.0 °C 25.0 °C 1011.9 hPa WSW 12 km/h 16 km/h 76% 0.00 mm 0.00 W/m2
20:39 30.0 °C 25.0 °C 1012.0 hPa SW 12 km/h 16 km/h 77% 0.00 mm 0.00 W/m2
20:44 30.0 °C 25.0 °C 1012.0 hPa SW 12 km/h 16 km/h 77% 0.00 mm 0.00 W/m2
20:49 29.0 °C 25.0 °C 1012.0 hPa WSW 10 km/h 12 km/h 77% 0.00 mm 0.00 W/m2
20:54 29.0 °C 25.0 °C 1012.2 hPa SSW 9 km/h 12 km/h 77% 0.00 mm 0.00 W/m2
20:59 29.0 °C 25.0 °C 1012.3 hPa SSW 11 km/h 16 km/h 77% 0.00 mm 0.00 W/m2
21:02 29.0 °C 25.0 °C 1012.4 hPa SSW 8 km/h 12 km/h 77% 0.00 mm 0.00 W/m2
21:14 29.0 °C 25.0 °C 1012.4 hPa SSW 10 km/h 12 km/h 77% 0.00 mm 0.00 W/m2
21:19 30.0 °C 25.0 °C 1012.5 hPa SW 6 km/h 8 km/h 77% 0.00 mm 0.00 W/m2
21:24 29.0 °C 25.0 °C 1012.4 hPa SW 7 km/h 8 km/h 77% 0.00 mm 0.00 W/m2
21:29 29.0 °C 25.0 °C 1012.4 hPa SW 5 km/h 8 km/h 77% 0.00 mm 0.00 W/m2
21:34 29.0 °C 25.0 °C 1012.7 hPa SW 5 km/h 8 km/h 77% 0.00 mm 0.00 W/m2
21:39 29.0 °C 25.0 °C 1012.8 hPa SW 9 km/h 12 km/h 77% 0.00 mm 0.00 W/m2
21:44 29.0 °C 25.0 °C 1012.7 hPa WSW 9 km/h 12 km/h 77% 0.00 mm 0.00 W/m2
21:49 29.0 °C 25.0 °C 1012.7 hPa SSW 10 km/h 16 km/h 77% 0.00 mm 0.00 W/m2
21:54 30.0 °C 25.0 °C 1012.7 hPa SSW 9 km/h 12 km/h 76% 0.00 mm 0.00 W/m2
21:59 30.0 °C 25.0 °C 1012.8 hPa SSW 12 km/h 16 km/h 78% 0.00 mm 0.00 W/m2
22:04 29.0 °C 25.0 °C 1012.8 hPa South 16 km/h 16 km/h 79% 0.00 mm 0.00 W/m2
22:09 29.0 °C 25.0 °C 1012.8 hPa SSW 15 km/h 16 km/h 79% 0.00 mm 0.00 W/m2
22:14 29.0 °C 25.0 °C 1012.7 hPa South 12 km/h 12 km/h 79% 0.00 mm 0.00 W/m2
22:19 29.0 °C 25.0 °C 1012.8 hPa South 11 km/h 16 km/h 80% 0.00 mm 0.00 W/m2
22:24 29.0 °C 26.0 °C 1012.8 hPa SSW 10 km/h 12 km/h 81% 0.00 mm 0.00 W/m2
22:29 29.0 °C 26.0 °C 1012.8 hPa SSE 15 km/h 20 km/h 81% 0.00 mm 0.00 W/m2
22:34 29.0 °C 25.0 °C 1012.8 hPa SSE 13 km/h 16 km/h 81% 0.00 mm 0.00 W/m2
22:39 29.0 °C 25.0 °C 1012.6 hPa SSE 8 km/h 8 km/h 82% 0.00 mm 0.00 W/m2
22:44 29.0 °C 25.0 °C 1012.6 hPa ESE 8 km/h 12 km/h 82% 0.00 mm 0.00 W/m2
22:45 29.0 °C 26.0 °C 1012.6 hPa Calm     82% 0.00 mm 0.00 W/m2
22:54 29.0 °C 26.0 °C 1012.6 hPa SSE 5 km/h 8 km/h 83% 0.00 mm 0.00 W/m2
22:59 29.0 °C 26.0 °C 1012.5 hPa South 8 km/h 8 km/h 83% 0.00 mm 0.00 W/m2
23:04 29.0 °C 26.0 °C 1012.4 hPa SSE 8 km/h 8 km/h 83% 0.00 mm 0.00 W/m2
23:09 29.0 °C 25.0 °C 1012.5 hPa South 8 km/h 12 km/h 83% 0.00 mm 0.00 W/m2
23:14 29.0 °C 25.0 °C 1012.4 hPa South 5 km/h 8 km/h 83% 0.00 mm 0.00 W/m2
23:19 29.0 °C 26.0 °C 1012.3 hPa SSE 8 km/h 8 km/h 84% 0.00 mm 0.00 W/m2
23:24 29.0 °C 26.0 °C 1012.3 hPa SSE 8 km/h 12 km/h 84% 0.00 mm 0.00 W/m2
23:29 29.0 °C 26.0 °C 1012.3 hPa SE 6 km/h 8 km/h 84% 0.00 mm 0.00 W/m2
23:34 29.0 °C 26.0 °C 1012.1 hPa SSE 9 km/h 12 km/h 84% 0.00 mm 0.00 W/m2
23:39 29.0 °C 26.0 °C 1012.0 hPa SSE 12 km/h 16 km/h 85% 0.00 mm 0.00 W/m2
23:44 28.0 °C 26.0 °C 1012.1 hPa SSE 13 km/h 16 km/h 85% 0.00 mm 0.00 W/m2
23:49 28.0 °C 26.0 °C 1012.0 hPa SSE 9 km/h 12 km/h 85% 0.00 mm 0.00 W/m2
23:54 28.0 °C 25.0 °C 1011.8 hPa SSE 13 km/h 16 km/h 84% 0.00 mm 0.00 W/m2
23:59 28.0 °C 25.0 °C 1012.1 hPa South 18 km/h 20 km/h 84% 0.00 mm 0.00 W/m2
PIMOHWEATHER Philippines
Compliments of Weather Underground - 2 mb